Location: Puketoi
(40.5833°S, 176.0167°E)
Time: 15:35:34
(UTC+00:00)

ALOS - Pass Details

Date: 08 February 2023
Orbit: 679 x 682 km, 98.0° (Epoch: 23 March)

Event Time Altitude Azimuth Distance (km) Brightness Sun altitude
Exits shadow 14:11:21 46° 117° (ESE) 930 3.1 -29.7°
Drops below altitude 10° 14:15:38 10° 180° (S) 2,154 5.5 -29.3°
Sets 14:17:57 0° 186° (S) 3,077 6.4 -29.1°
